Regional Weather Roundup
Issued by NWS

Home | Current Version | Previous Version | Text Only | Print | Product List | Glossary On
Versions: 1 2 3 4 5 6 7 8 9 10 11 12 13 14 15 16 17 18 19 20 21 22 23 24 25 26 27 28 29 30 31 32 33 34 35 36 37 38 39 40 41 42 43 44 45 46 47 48 49 50
579
ASUS44 KJAN 211803
RWRMS

MISSISSIPPI HOURLY WEATHER ROUNDUP
NATIONAL WEATHER SERVICE JACKSON MS
1200 PM CST SUN DEC 21 2014

NOTE: "FAIR: INDICATES FEW OR NO CLOUDS BELOW 12,000 FEET WITH NO
SIGNIFICANT WEATHER AND/OR OBSTRUCTIONS TO VISIBILITY.

MSZ001>002-007>008-010>013-018>021-025>028-034>036-211900-
NORTHWEST MISSISSIPPI

CITY           SKY/WX    TMP DP  RH WIND       PRES   REMARKS
CLARKSDALE     FAIR      54  36  50 E8        30.13F
CLEVELAND      FAIR      55  38  52 E7        30.11F
GREENWOOD      SUNNY     56  38  50 SE8       30.11F
6HR MIN TEMP:  33; 6HR MAX TEMP:  57;

GREENVILLE     SUNNY     55  37  50 SE9       30.11F
6HR MIN TEMP:  32; 6HR MAX TEMP:  55;

GRENADA        FAIR      52  37  58 CALM      30.13F
OLIVE BRANCH   MOSUNNY   52  34  50 SE8       30.12F
OXFORD         FAIR      52  32  46 SE7       30.15F
TUNICA         CLEAR     52  34  50 E6        30.13F
$$

MSZ003>006-009-014>017-022>024-029>033-037>039-211900-
NORTHEAST MISSISSIPPI

CITY           SKY/WX    TMP DP  RH WIND       PRES   REMARKS
COLUMBUS AFB   CLOUDY    47  39  74 N3        30.14F
6HR MIN TEMP:  31; 6HR MAX TEMP:  47;

CORINTH        FAIR      52  32  46 VRB3      30.13F
GOLDN TRIANGLE PTSUNNY   46  39  76 CALM      30.13F
STARKVILLE     MOCLDY    48  41  76 CALM      30.13F
TUPELO         SUNNY     52  35  52 E3        30.14F
6HR MIN TEMP:  28; 6HR MAX TEMP:  52;

$$

MSZ040-058-211900-
CENTRAL MISSISSIPPI

CITY           SKY/WX    TMP DP  RH WIND       PRES   REMARKS
JACKSON INTL   MOSUNNY   55  45  68 E5        30.10F
6HR MIN TEMP:  37; 6HR MAX TEMP:  55;

JACKSON HAWKNS MOSUNNY   55  44  66 E6        30.10F
6HR MIN TEMP:  36; 6HR MAX TEMP:  56;

MERIDIAN KEY   CLOUDY    50  44  80 CALM      30.12F
6HR MIN TEMP:  36; 6HR MAX TEMP:  50;

MERIDIAN NAS   CLOUDY    48  44  86 E6        30.12F
6HR MIN TEMP:  37; 6HR MAX TEMP:  49;

RAYMOND        FAIR      59  54  82 SE7       30.10F
VICKSBURG      SUNNY     56  46  69 E5        30.10F
6HR MIN TEMP:  31; 6HR MAX TEMP:  56;

$$

MSZ059>079-211900-
SOUTH MISSISSIPPI

CITY           SKY/WX    TMP DP  RH WIND       PRES   REMARKS
HATTIESBURG    CLOUDY    51  47  86 N3        30.11F
6HR MIN TEMP:  44; 6HR MAX TEMP:  51;

MCCOMB         CLOUDY    54  47  77 VRB5      30.09F
6HR MIN TEMP:  41; 6HR MAX TEMP:  54;

NATCHEZ        MOSUNNY   54  46  76 SE3       30.09F
6HR MIN TEMP:  32; 6HR MAX TEMP:  54;

PINE BELT      CLOUDY    48  45  87 CALM      30.12F
6HR MIN TEMP:  39; 6HR MAX TEMP:  48;

$$

MSZ080>082-211900-
COASTAL MISSISSIPPI

CITY           SKY/WX    TMP DP  RH WIND       PRES   REMARKS
BAY ST LOUIS   MOSUNNY   57  46  67 CALM      30.09F
BILOXI         CLOUDY    58  51  77 E5        30.08F
6HR MIN TEMP:  49; 6HR MAX TEMP:  59;

PASCAGOULA     CLOUDY    56  52  86 E3        30.08F
6HR MIN TEMP:  49; 6HR MAX TEMP:  56;

GULFPORT       PTSUNNY   59  50  72 CALM      30.08F
6HR MIN TEMP:  50; 6HR MAX TEMP:  59;

$$



USA.gov is the U.S. government's official web portal to all federal, state and local government web resources and services.